CW8504 Weather Reports


Display with metric or nautical units.
time (UTC)temp
F
wind
direction
speed
MPH
gust
MPH
rain 1hr
in
rain 24hr
in
rain mn
in
humidity
%
barometer
mb
20260903115904 45 215 0.0 0.0 0.00 0.03 0.00 67 1017.2
20260903115404 45 214 0.0 0.0 0.00 0.03 0.00 66 1017.3
20260903114404 45 214 0.0 0.0 0.00 0.03 0.00 66 1017.3
20260903113904 45 214 0.0 0.0 0.00 0.03 0.00 65 1017.3
20260903113404 46 214 0.0 0.0 0.00 0.03 0.00 65 1017.3
20260903112904 46 214 0.0 0.0 0.00 0.03 0.00 64 1017.3
20260903112404 46 214 0.0 0.0 0.00 0.03 0.00 64 1017.2
20260903111904 46 214 0.0 0.0 0.00 0.03 0.00 64 1017.1
20260903111404 46 214 0.0 0.0 0.00 0.03 0.00 65 1017.2
20260903110904 46 214 0.0 0.0 0.00 0.03 0.00 65 1017.1
20260903110404 46 214 0.0 0.0 0.00 0.03 0.00 65 1017.1
20260903105904 46 214 0.0 0.0 0.00 0.03 0.00 64 1016.9
20260903105404 46 214 0.0 0.0 0.00 0.03 0.00 63 1016.9
20260903104904 46 214 0.0 0.0 0.00 0.03 0.00 62 1016.9
20260903104404 46 214 0.0 0.0 0.00 0.03 0.00 62 1016.7
20260903103404 46 214 0.0 1.0 0.00 0.03 0.00 61 1016.6
20260903102904 46 216 0.0 3.0 0.00 0.03 0.00 62 1016.6
20260903102404 46 217 0.0 0.0 0.00 0.03 0.00 62 1016.6
20260903101904 46 217 0.0 0.0 0.00 0.03 0.00 62 1016.6
20260903101404 46 217 0.0 0.0 0.00 0.03 0.00 62 1016.5
20260903100904 47 217 0.0 0.0 0.00 0.03 0.00 61 1016.4
20260903095904 47 217 0.0 0.0 0.00 0.03 0.00 61 1016.5
20260903095405 47 217 0.0 0.0 0.00 0.03 0.00 60 1016.4
20260903094404 47 217 0.0 0.0 0.00 0.03 0.00 61 1016.3
20260903093904 48 217 0.0 0.0 0.00 0.03 0.00 60 1016.2
20260903093404 48 217 0.0 0.0 0.00 0.03 0.00 59 1016.3
20260903092904 48 217 0.0 0.0 0.00 0.03 0.00 59 1016.2
20260903092404 48 217 0.0 0.0 0.00 0.03 0.00 58 1016.3
20260903091904 48 217 0.0 0.0 0.00 0.03 0.00 58 1016.2
20260903091404 49 218 0.0 0.0 0.00 0.03 0.00 59 1016.4
20260903090904 49 218 0.0 0.0 0.00 0.03 0.00 58 1016.4
20260903090404 49 218 0.0 0.0 0.00 0.03 0.00 58 1016.5
20260903085904 49 218 0.0 0.0 0.00 0.04 0.00 57 1016.5
20260903085404 49 218 0.0 0.0 0.00 0.04 0.00 57 1016.4
20260903084904 49 218 0.0 0.0 0.00 0.04 0.00 57 1016.4
20260903084404 50 218 0.0 0.0 0.00 0.04 0.00 58 1016.5
20260903083904 50 218 0.0 0.0 0.00 0.04 0.00 58 1016.5
20260903083404 50 218 0.0 0.0 0.00 0.04 0.00 57 1016.5
20260903082904 50 218 0.0 0.0 0.00 0.04 0.00 57 1016.6
20260903082404 50 218 0.0 0.0 0.00 0.04 0.00 57 1016.5
20260903081904 50 218 0.0 0.0 0.00 0.04 0.00 57 1016.5
20260903081404 50 218 0.0 0.0 0.00 0.05 0.00 56 1016.5
20260903080904 50 218 0.0 0.0 0.00 0.05 0.00 57 1016.6
20260903080404 50 218 0.0 0.0 0.00 0.06 0.00 56 1016.7
20260903075904 50 218 0.0 0.0 0.00 0.07 0.00 56 1016.8
20260903075404 50 218 0.0 0.0 0.00 0.07 0.00 56 1016.8
20260903074904 50 218 0.0 0.0 0.00 0.08 0.00 56 1016.7
20260903074404 50 218 0.0 0.0 0.00 0.08 0.00 55 1016.7
20260903073904 51 218 0.0 0.0 0.00 0.08 0.00 55 1016.7
20260903073404 51 218 0.0 0.0 0.00 0.08 0.00 55 1016.7
20260903072904 51 218 0.0 0.0 0.00 0.08 0.00 54 1016.7
20260903072404 51 218 0.0 0.0 0.00 0.08 0.00 54 1016.7
20260903071904 51 218 0.0 0.0 0.00 0.08 0.00 54 1016.8
20260903071405 51 221 0.0 0.0 0.00 0.08 0.00 54 1016.5
20260903070904 51 221 0.0 0.0 0.00 0.08 0.00 54 1016.7
20260903070404 51 221 0.0 0.0 0.00 0.08 0.00 54 1016.8
20260903065904 51 221 0.0 0.0 0.00 0.08 0.00 54 1017.0
20260903065404 51 221 0.0 0.0 0.00 0.08 0.00 53 1017.0
20260903064904 51 221 0.0 0.0 0.00 0.08 0.00 53 1016.9
20260903064404 52 221 0.0 0.0 0.00 0.08 0.00 53 1016.6
20260903063904 52 221 0.0 0.0 0.00 0.08 0.00 54 1016.8
20260903063404 52 221 0.0 0.0 0.00 0.08 0.00 53 1016.9
20260903062904 52 221 0.0 0.0 0.00 0.08 0.00 51 1016.9
20260903062404 52 221 0.0 0.0 0.00 0.08 0.00 50 1017.0
20260903061904 52 221 0.0 0.0 0.00 0.08 0.00 49 1016.8
20260903061404 52 221 0.0 0.0 0.00 0.08 0.00 49 1016.7
20260903055904 52 221 0.0 0.0 0.00 0.08 0.08 46 1016.6
20260903055404 53 221 0.0 0.0 0.00 0.08 0.08 47 1016.6
20260903054904 53 221 0.0 0.0 0.00 0.08 0.08 46 1016.4
20260903054404 53 221 0.0 0.0 0.00 0.08 0.08 46 1016.4
20260903053904 53 221 0.0 0.0 0.00 0.08 0.08 46 1016.2
20260903052904 54 221 0.0 0.0 0.00 0.08 0.08 46 1016.3
20260903052404 54 221 0.0 0.0 0.00 0.08 0.08 46 1016.5
20260903051904 54 221 0.0 0.0 0.00 0.08 0.08 45 1016.5
20260903051404 54 221 0.0 0.0 0.00 0.08 0.08 44 1016.4
20260903050904 55 260 0.0 0.0 0.00 0.08 0.08 43 1016.2
20260903050404 55 260 0.0 0.0 0.00 0.08 0.08 45 1016.1
20260903045904 55 260 0.0 0.0 0.00 0.08 0.08 46 1016.1
20260903044904 56 260 0.0 0.0 0.00 0.08 0.08 43 1016.2
20260903044404 56 260 0.0 0.0 0.00 0.08 0.08 43 1016.2
20260903043904 57 260 0.0 0.0 0.00 0.08 0.08 42 1016.3
20260903043404 57 260 0.0 0.0 0.00 0.08 0.08 42 1016.2
20260903042904 57 260 0.0 0.0 0.00 0.08 0.08 43 1016.2
20260903042404 58 260 0.0 0.0 0.00 0.08 0.08 41 1016.1
20260903041904 58 260 0.0 0.0 0.00 0.08 0.08 39 1016.2
20260903041404 58 261 0.0 0.0 0.00 0.08 0.08 37 1016.3
20260903040904 59 261 0.0 0.0 0.00 0.08 0.08 36 1016.3
20260903040404 59 261 0.0 0.0 0.00 0.08 0.08 36 1016.3
20260903035904 59 261 0.0 0.0 0.00 0.08 0.08 34 1016.3
20260903035404 59 261 0.0 0.0 0.00 0.08 0.08 35 1016.4
20260903034904 60 261 0.0 0.0 0.00 0.08 0.08 36 1016.3
20260903034404 60 261 0.0 0.0 0.00 0.08 0.08 35 1016.2
20260903033904 60 261 0.0 0.0 0.00 0.08 0.08 34 1016.2
20260903032904 60 261 0.0 0.0 0.00 0.08 0.08 32 1016.3
20260903032404 60 248 0.0 0.0 0.00 0.08 0.08 28 1016.4
20260903031404 61 247 0.0 0.0 0.00 0.08 0.08 30 1016.4
20260903030904 61 247 0.0 0.0 0.00 0.08 0.08 31 1016.6
20260903030405 61 247 0.0 0.0 0.00 0.08 0.08 30 1016.5
20260903025904 61 247 0.0 0.0 0.00 0.08 0.08 28 1016.4
20260903025407 62 247 0.0 0.0 0.00 0.08 0.08 29 1016.5
20260903024904 62 247 0.0 0.0 0.00 0.08 0.08 27 1016.4
20260903024404 62 268 0.0 0.0 0.00 0.08 0.08 27 1016.3
20260903023904 62 269 0.0 0.0 0.00 0.08 0.08 26 1016.2
20260903023404 62 269 0.0 0.0 0.00 0.09 0.08 25 1016.1
20260903022904 63 249 0.0 0.0 0.00 0.09 0.08 26 1016.0
20260903021904 63 249 0.0 0.0 0.00 0.09 0.08 25 1015.8
20260903021404 64 249 0.0 0.0 0.00 0.09 0.08 23 1015.7
20260903020904 64 249 0.0 0.0 0.00 0.09 0.08 29 1015.7
20260903020404 65 247 0.0 0.0 0.00 0.09 0.08 29 1015.7
20260903015904 66 247 0.0 0.0 0.00 0.09 0.08 26 1015.5
20260903014404 67 247 0.0 0.0 0.00 0.09 0.08 15 1015.5
20260903013904 68 247 0.0 2.0 0.00 0.09 0.08 14 1015.5
20260903013404 68 248 0.0 0.0 0.00 0.09 0.08 15 1015.5
20260903012904 69 248 0.0 0.0 0.00 0.09 0.08 16 1015.5
20260903012404 69 248 0.0 2.0 0.00 0.09 0.08 15 1015.5
20260903011904 70 228 0.0 1.0 0.00 0.09 0.08 18 1015.3
20260903010904 71 223 0.0 0.0 0.00 0.09 0.08 15 1015.2
20260903010404 71 223 0.0 0.0 0.00 0.09 0.08 13 1015.2
20260903005904 71 223 0.0 0.0 0.00 0.09 0.08 12 1015.2
20260903005404 71 223 0.0 2.0 0.00 0.09 0.08 13 1015.2
20260903004404 72 217 1.0 3.0 0.00 0.09 0.08 12 1015.1
20260903003904 72 216 1.0 6.0 0.00 0.09 0.08 12 1015.1
20260903003404 72 233 2.0 8.0 0.00 0.09 0.08 10 1015.2
20260903002904 72 226 0.0 5.0 0.00 0.09 0.08 12 1015.2
20260903002404 73 226 0.0 6.0 0.00 0.09 0.08 12 1015.2
20260903001404 74 239 0.0 3.0 0.00 0.09 0.08 12 1015.3
20260903000904 74 212 2.0 12.0 0.00 0.09 0.08 12 1015.2
20260903000404 75 223 0.0 2.0 0.00 0.09 0.08 12 1015.2
20260902235904 75 218 2.0 6.0 0.00 0.09 0.08 12 1015.2
20260902235404 75 222 1.0 5.0 0.00 0.09 0.08 14 1015.1
20260902234904 75 224 2.0 6.0 0.00 0.09 0.08 12 1015.1
20260902234404 74 218 1.0 6.0 0.00 0.09 0.08 14 1015.1
20260902233904 74 218 1.0 6.0 0.00 0.09 0.08 17 1015.1
20260902233404 73 225 1.0 5.0 0.00 0.09 0.08 15 1015.1
20260902232904 72 222 1.0 12.0 0.00 0.09 0.08 15 1015.1
20260902232404 72 246 5.0 9.0 0.00 0.09 0.08 14 1015.1
20260902231904 72 215 2.0 12.0 0.00 0.09 0.08 14 1015.2
20260902231404 73 224 1.0 6.0 0.00 0.09 0.08 15 1015.2
20260902230904 73 247 0.0 0.0 0.00 0.09 0.08 16 1015.0
20260902225904 72 216 1.0 6.0 0.00 0.09 0.08 13 1015.0
20260902225404 72 214 1.0 5.0 0.00 0.09 0.08 14 1015.0
20260902224404 73 225 4.0 12.0 0.00 0.09 0.08 13 1015.2
20260902223904 73 226 3.0 10.0 0.00 0.09 0.08 13 1015.1
20260902223404 73 221 2.0 10.0 0.00 0.09 0.08 12 1015.1
20260902222403 74 222 4.0 15.0 0.00 0.09 0.08 11 1015.2
20260902221904 73 221 3.0 13.0 0.00 0.09 0.08 15 1015.2
20260902221404 73 212 2.0 13.0 0.00 0.09 0.08 14 1015.2
20260902220904 73 214 5.0 13.0 0.00 0.09 0.08 14 1015.2
20260902220404 74 228 6.0 14.0 0.00 0.09 0.08 13 1015.1
20260902215904 74 227 6.0 13.0 0.00 0.09 0.08 13 1015.2
20260902215404 73 229 2.0 13.0 0.00 0.09 0.08 12 1015.1
20260902214904 73 208 5.0 12.0 0.00 0.09 0.08 16 1015.1
20260902214404 73 219 3.0 13.0 0.00 0.09 0.08 15 1015.2
20260902213904 73 231 3.0 13.0 0.00 0.09 0.08 17 1015.1
20260902213404 73 217 5.0 12.0 0.00 0.09 0.08 16 1015.0
20260902212904 74 226 4.0 17.0 0.00 0.09 0.08 16 1015.1
20260902211904 74 211 4.0 15.0 0.00 0.09 0.08 16 1015.1
20260902211404 74 226 6.0 12.0 0.00 0.09 0.08 15 1015.1
20260902210904 73 214 7.0 12.0 0.00 0.09 0.08 17 1015.2
20260902205904 73 213 3.0 10.0 0.00 0.09 0.08 15 1015.3
20260902205404 74 232 4.0 16.0 0.00 0.09 0.08 16 1015.2
20260902204404 74 227 6.0 16.0 0.00 0.09 0.08 15 1015.3
20260902203904 74 207 5.0 10.0 0.00 0.09 0.08 17 1015.4
20260902202404 74 205 1.0 7.0 0.00 0.09 0.08 19 1015.3
20260902201904 74 226 9.0 23.0 0.00 0.09 0.08 21 1015.3
20260902201404 73 245 1.0 12.0 0.00 0.09 0.08 22 1015.3
20260902200904 73 161 2.0 10.0 0.00 0.09 0.08 26 1015.4
20260902200404 72 209 3.0 9.0 0.00 0.09 0.08 27 1015.3
20260902195904 72 128 3.0 12.0 0.00 0.09 0.08 30 1015.3
20260902195404 71 182 3.0 8.0 0.00 0.09 0.08 27 1015.3
20260902194904 70 132 2.0 9.0 0.00 0.09 0.08 33 1015.4
20260902194404 70 120 8.0 14.0 0.00 0.09 0.08 33 1015.6
20260902192904 69 31 2.0 8.0 0.00 0.09 0.08 36 1015.8
20260902191904 67 37 1.0 3.0 0.01 0.09 0.08 41 1016.2
20260902191404 67 38 1.0 3.0 0.01 0.09 0.08 40 1016.3
20260902190904 66 53 0.0 3.0 0.01 0.09 0.08 43 1016.3
20260902190405 66 285 0.0 1.0 0.02 0.09 0.08 49 1016.3
20260902185904 65 281 0.0 0.0 0.02 0.09 0.08 51 1016.5
20260902185404 64 291 0.0 7.0 0.02 0.09 0.08 50 1016.5
20260902184404 63 335 0.0 6.0 0.03 0.09 0.08 56 1016.6
20260902183404 62 268 0.0 3.0 0.03 0.09 0.08 60 1016.8
20260902182904 61 17 0.0 0.0 0.03 0.09 0.08 64 1017.1
20260902182404 60 15 0.0 0.0 0.02 0.08 0.07 63 1017.1
20260902181904 60 17 0.0 0.0 0.02 0.08 0.07 63 1017.3
20260902181404 60 17 0.0 0.0 0.02 0.08 0.07 63 1017.3
20260902180904 60 17 0.0 0.0 0.02 0.08 0.07 62 1017.3
20260902180405 61 17 0.0 0.0 0.01 0.07 0.06 61 1017.4
20260902175904 62 223 0.0 0.0 0.01 0.07 0.06 59 1017.4
20260902175404 63 226 0.0 2.0 0.01 0.07 0.06 50 1017.6
20260902174404 67 216 8.0 17.0 0.00 0.06 0.05 41 1017.5
20260902173404 68 46 0.0 0.0 0.00 0.06 0.05 41 1016.6
20260902172904 68 46 0.0 3.0 0.00 0.06 0.05 38 1016.6
20260902172404 68 46 1.0 8.0 0.00 0.06 0.05 38 1016.6
20260902171906 68 44 1.0 2.0 0.00 0.06 0.05 42 1016.6
20260902171404 67 37 0.0 12.0 0.00 0.06 0.05 44 1016.7
20260902170904 66 20 1.0 5.0 0.00 0.06 0.05 43 1016.8
20260902170404 66 27 1.0 5.0 0.00 0.06 0.05 47 1016.7
20260902165904 65 24 2.0 6.0 0.00 0.06 0.05 47 1016.8
20260902165404 65 39 2.0 10.0 0.00 0.06 0.05 47 1016.9
20260902164904 64 73 2.0 8.0 0.00 0.06 0.05 53 1016.9
20260902164404 63 114 0.0 7.0 0.00 0.06 0.05 62 1017.0
20260902163904 61 34 1.0 12.0 0.00 0.06 0.05 66 1016.9
20260902163404 60 309 0.0 1.0 0.00 0.06 0.05 71 1016.8
20260902162904 59 310 0.0 3.0 0.00 0.06 0.05 74 1016.9
20260902162404 58 311 1.0 5.0 0.00 0.06 0.05 75 1016.8
20260902161904 57 325 0.0 0.0 0.00 0.06 0.05 76 1017.0
20260902161404 57 325 0.0 0.0 0.00 0.06 0.05 78 1017.1
20260902160904 56 325 0.0 0.0 0.00 0.06 0.05 79 1017.0
20260902160404 56 325 0.0 0.0 0.00 0.06 0.05 79 1017.2
20260902155904 55 325 0.0 0.0 0.00 0.06 0.05 80 1017.2
20260902155404 55 325 0.0 0.0 0.00 0.06 0.05 80 1017.1
20260902154904 55 329 0.0 0.0 0.00 0.06 0.05 80 1017.2
20260902153404 52 340 0.0 0.0 0.00 0.06 0.05 81 1017.2
20260902152404 51 340 0.0 0.0 0.00 0.06 0.05 80 1017.4
20260902151904 50 340 0.0 0.0 0.00 0.06 0.05 80 1017.5
20260902151404 50 340 0.0 0.0 0.00 0.06 0.05 80 1017.6
20260902150904 50 340 0.0 0.0 0.00 0.07 0.05 80 1017.6
20260902150404 50 340 0.0 0.0 0.00 0.07 0.05 80 1017.7
20260902145904 50 340 0.0 0.0 0.00 0.08 0.05 80 1017.7
20260902145404 50 340 0.0 0.0 0.00 0.08 0.05 80 1017.7
20260902144404 49 340 0.0 0.0 0.00 0.11 0.05 80 1017.8
20260902143904 49 340 0.0 0.0 0.00 0.12 0.05 80 1017.7
20260902143404 49 341 0.0 0.0 0.00 0.12 0.05 80 1017.8
20260902142904 48 341 0.0 0.0 0.00 0.13 0.05 79 1017.8
20260902142404 48 341 0.0 0.0 0.00 0.13 0.05 79 1017.9
20260902141904 48 341 0.0 0.0 0.00 0.13 0.05 79 1017.9
20260902141403 48 341 0.0 0.0 0.00 0.13 0.05 79 1017.9
20260902140904 48 341 0.0 0.0 0.00 0.13 0.05 79 1017.9
20260902135904 48 341 0.0 0.0 0.00 0.13 0.05 79 1018.0
20260902135404 48 341 0.0 0.0 0.00 0.13 0.05 79 1017.9
20260902134404 47 341 0.0 0.0 0.00 0.13 0.05 79 1018.0
20260902133904 47 341 0.0 0.0 0.00 0.13 0.05 79 1018.0
20260902133404 47 341 0.0 0.0 0.00 0.13 0.05 79 1018.0
20260902132904 47 341 0.0 0.0 0.00 0.13 0.05 79 1018.0
20260902132404 47 341 0.0 0.0 0.00 0.13 0.05 79 1018.0
20260902131904 47 341 0.0 2.0 0.00 0.13 0.05 78 1018.0
20260902131404 47 342 0.0 0.0 0.00 0.13 0.05 78 1018.1
20260902130904 47 342 0.0 0.0 0.00 0.13 0.05 78 1018.1
20260902130404 47 342 0.0 0.0 0.00 0.13 0.05 78 1018.1
20260902125405 47 342 0.0 0.0 0.00 0.14 0.05 78 1018.0
20260902124404 48 342 0.0 0.0 0.00 0.15 0.05 78 1017.8
20260902123904 48 342 0.0 0.0 0.00 0.16 0.05 78 1017.7
20260902123404 48 342 0.0 0.0 0.00 0.16 0.05 78 1017.8
20260902122905 48 342 0.0 0.0 0.00 0.16 0.05 78 1017.8
20260902121904 48 342 0.0 0.0 0.00 0.16 0.05 78 1017.8
20260902121404 49 342 0.0 0.0 0.00 0.16 0.05 78 1017.7
20260902120404 49 342 0.0 0.0 0.00 0.16 0.05 78 1017.8